Location: Hains Lake
(37.8540°N, 99.8578°W)
Time: 05:00:16
(UTC+00:00)

Tiros 1 despin weight - Pass Details

Date: 25 April 2021
Orbit: 593 x 642 km, 48.2° (Epoch: 07 May)

Event Time Altitude Azimuth Distance (km) Brightness Sun altitude
Rises 11:31:07 0° 277° (W) 2,921 - -4.4°
Exits shadow 11:31:32 - 279° (W) 2,770 ? -4.4°
Reaches altitude 10° 11:33:47 10° 291° (WNW) 2,006 ? -3.9°
Maximum altitude 11:37:39 26° 348° (NNW) 1,245 ? -3.2°
Drops below altitude 10° 11:41:28 10° 45° (NE) 1,983 ? -2.5°
Sets 11:44:06 0° 58° (ENE) 2,879 ? -2.0°
